Regional Weather Roundup
Issued by NWS

Home | Current Version | Previous Version | Text Only | Print | Product List | Glossary Off
Versions: 1 2 3 4 5 6 7 8 9 10 11 12 13 14 15 16 17 18 19 20 21 22 23 24 25 26 27 28 29 30 31 32 33 34 35 36 37 38 39 40 41 42 43 44 45 46 47 48 49 50

000
ASUS43 KOAX 030502
RWRNE

WEATHER ROUNDUP FOR NEBRASKA
NATIONAL WEATHER SERVICE OMAHA NE
1100 PM CST FRI DEC 02 2016

NOTES: SATELLITE DATA IS BEING USED TO AUGMENT CLOUD COVER ABOVE
       12000 FEET.
       "FAIR" INDICATES FEW OR NO CLOUDS BELOW 12,000 FEET WITH NO
       SIGNIFICANT WEATHER AND/OR OBSTRUCTIONS TO VISIBILITY.

  * THESE STATIONS DO NOT REPORT WEATHER SUCH AS RAIN...SNOW OR FOG.

NEZ001>004-019>022-054>056-030600-
NEBRASKA PANHANDLE

CITY           SKY/WX    TMP DP  RH WIND       PRES   REMARKS
ALLIANCE       CLEAR     16  12  84 S3        30.17F
CHADRON        CLEAR     22  16  78 CALM      30.16F
KIMBALL        CLOUDY    27  24  89 S6        30.16S WCI  21
SIDNEY         CLEAR     16  12  84 S7        30.19S WCI   6
$$

NEZ057>060-069>072-079>082-030600-
SOUTHWEST NEBRASKA

CITY           SKY/WX    TMP DP  RH WIND       PRES   REMARKS
NORTH PLATTE   MOCLDY    21  17  84 CALM      30.26
IMPERIAL       CLOUDY    25  20  81 CALM      30.25R
LEXINGTON      CLOUDY    22  19  90 CALM      30.28R
MCCOOK         CLOUDY    27  20  75 SW5       30.29R WCI  22
OGALLALA       CLOUDY    22  19  89 W3        30.23S
$$

NEZ005>010-023>029-035>040-094-030600-
NORTH CENTRAL NEBRASKA

CITY           SKY/WX    TMP DP  RH WIND       PRES   REMARKS
VALENTINE      CLEAR     21  18  88 CALM      30.22S
AINSWORTH      CLEAR     22  20  93 S6        30.23S WCI  14
BROKEN BOW     CLEAR     23  21  92 CALM      30.25S
O`NEILL        CLEAR     25  24  93 S6        30.26F WCI  18
ORD            CLEAR     21  18  88 SE3       30.27S
THEDFORD       PTCLDY    22  18  84 CALM      30.23F
$$

NEZ041-046>049-061>064-073>077-083>087-030600-
SOUTH CENTRAL NEBRASKA

CITY           SKY/WX    TMP DP  RH WIND       PRES   REMARKS
GRAND ISLAND   CLEAR     24  22  91 S5        30.31R WCI  18
AURORA         PTCLDY    25  23  93 SE5       30.31R WCI  19
HASTINGS       PTCLDY    27  21  78 S3        30.31S
HEBRON         CLOUDY    24  21  89 CALM      30.35R
HOLDREGE       CLEAR     26  22  84 S5        30.29R WCI  20
KEARNEY *      CLOUDY    23  18  80 SW3       30.30R
YORK           CLOUDY    27  25  93 CALM      30.32R
$$

NEZ011>018-030>034-042>045-030600-
NORTHEAST NEBRASKA

CITY           SKY/WX    TMP DP  RH WIND       PRES   REMARKS
NORFOLK        CLEAR     24  20  84 CALM      30.29S
ALBION         PTCLDY    21  19  91 CALM      30.29S
BLAIR          CLEAR     30  27  87 CALM      30.32S
FREMONT        CLEAR     26  25  96 CALM      30.33S
TEKAMAH        CLEAR     30  25  81 CALM      30.33S
WAYNE          CLEAR     24  22  93 CALM      30.30S
$$

NEZ050>053-065>068-078-088>093-030600-
SOUTHEAST NEBRASKA

CITY           SKY/WX    TMP DP  RH WIND       PRES   REMARKS
LINCOLN        CLOUDY    24  22  91 CALM      30.36R
OMAHA EPPLEY   MOCLDY    29  22  75 CALM      30.34S
BEATRICE       PTCLDY    28  24  88 CALM      30.35R
FALLS CITY       N/A    N/A N/A N/A MISG      30.36R
NEBRASKA CITY  CLEAR     30  26  83 CALM      30.34R
PLATTSMOUTH    PTCLDY    31  26  80 CALM      30.33S
$$

NEZ044-045-051>053-067-030600-
OMAHA AREA

CITY           SKY/WX    TMP DP  RH WIND       PRES   REMARKS
OMAHA EPPLEY   MOCLDY    29  22  75 CALM      30.34S
BLAIR          CLEAR     30  27  87 CALM      30.32S
FREMONT        CLEAR     26  25  96 CALM      30.33S
MILLARD        CLEAR     28  26  90 CALM      30.34S
OFFUTT AFB     CLEAR     23  22  99 S3        30.34R
PLATTSMOUTH    PTCLDY    31  26  80 CALM      30.33S
WAHOO          FAIR      27  25  94 CALM      30.33S
$$




USA.gov is the U.S. government's official web portal to all federal, state and local government web resources and services.